Hourly Data

Hourly Data Report for March 04, 2012

All times are specified in Local Standard Time (LST). Add 1 hour to adjust for Daylight Saving Time where and when it is observed.

Metadata including Station Name, Province, Latitude, Longitude, Elevation, Climate ID, WMO ID, TC ID
ST-JOVITE
QUEBEC
Latitude: 46°04'49.000" N Longitude: 74°33'21.000" W Elevation: 238.50 m
Climate ID: 703GDKB WMO ID: 71376 TC ID: WJT
Hourly Data Report for March 4, 2012
Temp Definition
°C

Dew Point Temp Definition
°C

Rel Hum Definition
%

Wind Dir Definition
10's deg
Wind Spd Definition
km/h

Visibility Definition
km

Stn Press Definition
kPa

Hmdx Definition

Wind Chill Definition

Weather Definition

TIME
00:00 -4.4 -8.3 74 27 9 96.90 -8 LegendNANA
01:00 -6.1 -10.5 71 28 7 97.02 -9 LegendNANA
02:00 -7.3 -11.3 73 30 7 97.12 -11 LegendNANA
03:00 -9.2 -12.7 76 27 4 97.20 -11 LegendNANA
04:00 -11.0 -13.7 80 28 4 97.27 -13 LegendNANA
05:00 -12.4 -14.4 85 29 4 97.32 -15 LegendNANA
06:00 -12.6 -15.6 78 28 4 97.39 -15 LegendNANA
07:00 -13.8 -16.8 78 30 6 97.42 -18 LegendNANA
08:00 -13.0 -16.8 73 27 6 97.46 -17 LegendNANA
09:00 -11.9 -16.8 67 29 7 97.47 -16 LegendNANA
10:00 -10.7 -16.8 61 28 6 97.44 -14 LegendNANA
11:00 -9.8 -16.6 58 27 7 97.44 -14 LegendNANA
12:00 -9.3 -15.9 59 25 7 97.43 -13 LegendNANA
13:00 -8.1 -15.7 54 27 9 97.35 -13 LegendNANA
14:00 -7.9 -15.3 55 25 9 97.34 -12 LegendNANA
15:00 -8.1 -15.0 58 27 7 97.37 -12 LegendNANA
16:00 -8.8 -15.0 61 29 7 97.44 -13 LegendNANA
17:00 -9.5 -14.8 65 29 6 97.49 -13 LegendNANA
18:00 -10.7 -14.8 72 30 6 97.57 -14 LegendNANA
19:00 -12.2 -15.3 78 30 6 97.65 -16 LegendNANA
20:00 -13.7 -17.3 74 30 6 97.68 -18 LegendNANA
21:00 -14.6 -17.6 78 31 4 97.71 -17 LegendNANA
22:00 -15.9 -18.6 80 30 4 97.71 -19 LegendNANA
23:00 -17.7 -19.7 84 28 2 97.72 -19 LegendNANA

Notes on Data Quality.

Legend
  • M = Missing
  • E = Estimated
  • NA = Not Available
  • ‡ = Partner data that is not subject to review by the National Climate Archives